Location: Unspecified
(0.0000°N, 0.0000°E)
Time: 23:30:20
(UTC+00:00)

Vanguard 2 - Pass Details

Date: 09 October 2020
Orbit: 554 x 2937 km, 32.9° (Epoch: 28 October)

Event Time Altitude Azimuth Distance (km) Brightness Sun altitude
Rises 00:56:13 0° 267° (W) 6,786 - -71.7°
Reaches altitude 10° 01:02:14 10° 278° (W) 5,674 - -70.2°
Maximum altitude 01:14:47 25° 327° (NNW) 3,987 - -67.3°
Drops below altitude 10° 01:24:37 10° 17° (NNE) 4,347 - -64.9°
Sets 01:28:30 0° 31° (NNE) 4,969 - -64.0°
